| time (UTC) | temp F | wind direction | speed MPH | gust MPH | rain 1hr in | rain 24hr in | rain mn in | humidity % | barometer mb |
| 20260906134556 | 52 | 343 | 0.0 | 0.0 | 0.00 | 0.00 | 0.00 | 95 | 1009.6 |
| 20260906133104 | 52 | 51 | 0.0 | 0.0 | 0.00 | 0.00 | 0.00 | 95 | 1009.5 |
| 20260906131559 | 52 | 51 | 0.0 | 0.0 | 0.00 | 0.00 | 0.00 | 95 | 1009.3 |
| 20260906130055 | 52 | 51 | 0.0 | 0.0 | 0.00 | 0.00 | 0.00 | 95 | 1009.3 |
| 20260906124553 | 52 | 334 | 0.0 | 0.0 | 0.00 | 0.00 | 0.00 | 95 | 1009.3 |
| 20260906123051 | 52 | 334 | 0.0 | 0.0 | 0.00 | 0.00 | 0.00 | 95 | 1009.3 |
| 20260906121551 | 52 | 334 | 0.0 | 0.0 | 0.00 | 0.00 | 0.00 | 95 | 1009.3 |
| 20260906120050 | 53 | 334 | 0.0 | 0.0 | 0.00 | 0.00 | 0.00 | 95 | 1009.1 |
| 20260906114550 | 53 | 334 | 0.0 | 0.0 | 0.00 | 0.00 | 0.00 | 95 | 1009.0 |
| 20260906113050 | 53 | 40 | 0.0 | 0.0 | 0.00 | 0.00 | 0.00 | 95 | 1009.0 |
| 20260906111547 | 53 | 133 | 0.0 | 0.0 | 0.00 | 0.00 | 0.00 | 95 | 1009.0 |
| 20260906110046 | 53 | 134 | 0.0 | 0.0 | 0.00 | 0.00 | 0.00 | 95 | 1008.9 |
| 20260906104543 | 53 | 134 | 0.0 | 0.0 | 0.00 | 0.01 | 0.00 | 95 | 1009.0 |
| 20260906103043 | 53 | 133 | 0.0 | 0.0 | 0.00 | 0.01 | 0.00 | 94 | 1009.0 |
| 20260906101542 | 53 | 134 | 0.0 | 0.0 | 0.00 | 0.01 | 0.00 | 94 | 1009.1 |
| 20260906100040 | 53 | 133 | 0.0 | 0.0 | 0.00 | 0.01 | 0.00 | 94 | 1009.1 |
| 20260906094539 | 53 | 134 | 0.0 | 0.0 | 0.00 | 0.01 | 0.00 | 94 | 1009.1 |
| 20260906093038 | 54 | 134 | 0.0 | 0.0 | 0.00 | 0.01 | 0.00 | 94 | 1009.1 |
| 20260906091536 | 54 | 133 | 0.0 | 0.0 | 0.00 | 0.01 | 0.00 | 94 | 1009.1 |
| 20260906090035 | 54 | 134 | 0.0 | 0.0 | 0.00 | 0.01 | 0.00 | 94 | 1009.2 |
| 20260906084533 | 54 | 134 | 0.0 | 0.0 | 0.00 | 0.01 | 0.00 | 94 | 1009.2 |
| 20260906083039 | 54 | 134 | 0.0 | 0.0 | 0.00 | 0.01 | 0.00 | 94 | 1009.3 |
| 20260906081536 | 55 | 170 | 0.0 | 0.0 | 0.00 | 0.01 | 0.00 | 94 | 1009.3 |
| 20260906080030 | 55 | 155 | 0.0 | 0.0 | 0.00 | 0.01 | 0.00 | 94 | 1009.3 |
| 20260906074528 | 55 | 155 | 0.0 | 0.0 | 0.00 | 0.01 | 0.00 | 94 | 1009.4 |
| 20260906073027 | 55 | 198 | 0.0 | 0.0 | 0.00 | 0.01 | 0.00 | 94 | 1009.4 |
| 20260906071526 | 55 | 217 | 0.0 | 0.0 | 0.00 | 0.01 | 0.00 | 94 | 1009.4 |
| 20260906070025 | 55 | 217 | 0.0 | 0.0 | 0.00 | 0.01 | 0.00 | 94 | 1009.4 |
| 20260906064533 | 55 | 240 | 0.0 | 0.0 | 0.00 | 0.01 | 0.01 | 94 | 1009.5 |
| 20260906063024 | 55 | 240 | 0.0 | 0.0 | 0.00 | 0.01 | 0.01 | 94 | 1009.6 |
| 20260906061523 | 55 | 240 | 0.0 | 0.0 | 0.00 | 0.01 | 0.01 | 93 | 1009.6 |
| 20260906060027 | 55 | 240 | 0.0 | 0.0 | 0.00 | 0.01 | 0.01 | 93 | 1009.9 |
| 20260906054522 | 55 | 265 | 0.0 | 0.0 | 0.00 | 0.01 | 0.01 | 93 | 1009.9 |
| 20260906053027 | 55 | 167 | 0.0 | 0.0 | 0.00 | 0.01 | 0.01 | 93 | 1010.1 |
| 20260906051530 | 55 | 220 | 0.0 | 0.0 | 0.00 | 0.01 | 0.01 | 92 | 1010.1 |
| 20260906050046 | 55 | 197 | 0.0 | 0.0 | 0.00 | 0.01 | 0.01 | 92 | 1010.2 |
| 20260906044520 | 55 | 197 | 0.0 | 0.0 | 0.00 | 0.01 | 0.01 | 91 | 1010.2 |
| 20260906043020 | 55 | 197 | 0.0 | 0.0 | 0.00 | 0.01 | 0.01 | 91 | 1010.1 |
| 20260906041519 | 55 | 198 | 0.0 | 0.0 | 0.00 | 0.01 | 0.01 | 89 | 1010.0 |
| 20260906040018 | 56 | 197 | 0.0 | 0.0 | 0.00 | 0.01 | 0.01 | 89 | 1010.0 |
| 20260906034523 | 56 | 198 | 0.0 | 0.0 | 0.00 | 0.01 | 0.01 | 88 | 1009.8 |
| 20260906033024 | 57 | 197 | 0.0 | 0.0 | 0.00 | 0.01 | 0.01 | 86 | 1009.6 |
| 20260906031519 | 58 | 197 | 0.0 | 0.0 | 0.00 | 0.01 | 0.01 | 84 | 1009.4 |
| 20260906030018 | 59 | 197 | 0.0 | 0.0 | 0.00 | 0.01 | 0.01 | 82 | 1009.3 |
| 20260906024515 | 61 | 197 | 0.0 | 0.0 | 0.00 | 0.01 | 0.01 | 79 | 1009.2 |
| 20260906023016 | 63 | 197 | 0.0 | 0.0 | 0.00 | 0.01 | 0.01 | 75 | 1009.2 |
| 20260906021516 | 64 | 258 | 0.0 | 0.0 | 0.00 | 0.01 | 0.01 | 73 | 1009.2 |
| 20260906020012 | 64 | 304 | 0.0 | 0.0 | 0.00 | 0.01 | 0.01 | 70 | 1009.3 |
| 20260906014511 | 66 | 355 | 0.0 | 0.0 | 0.00 | 0.01 | 0.01 | 66 | 1009.3 |
| 20260906013012 | 68 | 252 | 0.0 | 0.0 | 0.00 | 0.01 | 0.01 | 63 | 1009.2 |
| 20260906011510 | 68 | 340 | 0.0 | 0.0 | 0.00 | 0.01 | 0.01 | 60 | 1009.2 |
| 20260906010010 | 69 | 15 | 0.0 | 0.0 | 0.00 | 0.01 | 0.01 | 58 | 1009.1 |
| 20260906004507 | 70 | 15 | 0.0 | 0.0 | 0.00 | 0.01 | 0.01 | 60 | 1009.1 |
| 20260906003006 | 71 | 355 | 0.0 | 0.0 | 0.00 | 0.01 | 0.01 | 57 | 1009.1 |
| 20260906001604 | 72 | 241 | 0.0 | 0.0 | 0.00 | 0.01 | 0.01 | 57 | 1009.1 |
| 20260906000006 | 72 | 214 | 0.0 | 0.0 | 0.00 | 0.01 | 0.01 | 57 | 1009.0 |
| 20260905234504 | 71 | 255 | 0.0 | 0.0 | 0.00 | 0.01 | 0.01 | 56 | 1009.1 |
| 20260905233002 | 71 | 213 | 0.0 | 0.0 | 0.00 | 0.01 | 0.01 | 57 | 1009.0 |
| 20260905231502 | 71 | 244 | 0.0 | 0.0 | 0.00 | 0.01 | 0.01 | 59 | 1009.2 |
| 20260905230001 | 72 | 202 | 0.0 | 0.0 | 0.00 | 0.01 | 0.01 | 59 | 1009.3 |
| 20260905224606 | 74 | 233 | 0.0 | 0.0 | 0.00 | 0.01 | 0.01 | 59 | 1009.3 |
| 20260905223059 | 74 | 169 | 0.0 | 0.0 | 0.00 | 0.01 | 0.01 | 58 | 1009.4 |
| 20260905221600 | 75 | 261 | 0.0 | 0.0 | 0.00 | 0.01 | 0.01 | 57 | 1009.4 |
| 20260905220057 | 75 | 213 | 0.0 | 0.0 | 0.00 | 0.01 | 0.01 | 58 | 1009.3 |
| 20260905214605 | 75 | 217 | 0.0 | 0.0 | 0.00 | 0.01 | 0.01 | 56 | 1009.3 |
| 20260905213053 | 75 | 241 | 0.0 | 4.0 | 0.00 | 0.01 | 0.01 | 56 | 1009.2 |
| 20260905211551 | 75 | 261 | 0.0 | 6.0 | 0.00 | 0.01 | 0.01 | 58 | 1009.2 |
| 20260905210050 | 75 | 286 | 0.0 | 7.0 | 0.00 | 0.01 | 0.01 | 58 | 1009.2 |
| 20260905204548 | 75 | 243 | 0.0 | 0.0 | 0.00 | 0.01 | 0.01 | 60 | 1009.2 |
| 20260905203045 | 75 | 234 | 1.0 | 5.0 | 0.00 | 0.01 | 0.01 | 58 | 1009.2 |
| 20260905201542 | 74 | 222 | 0.0 | 0.0 | 0.00 | 0.01 | 0.01 | 63 | 1009.2 |
| 20260905200045 | 74 | 191 | 0.0 | 0.0 | 0.00 | 0.01 | 0.01 | 57 | 1009.3 |
| 20260905194534 | 71 | 221 | 0.0 | 0.0 | 0.00 | 0.01 | 0.01 | 66 | 1009.3 |
| 20260905193032 | 70 | 229 | 0.0 | 1.0 | 0.00 | 0.01 | 0.01 | 67 | 1009.4 |
| 20260905191531 | 70 | 262 | 0.0 | 0.0 | 0.00 | 0.01 | 0.01 | 68 | 1009.6 |
| 20260905190029 | 70 | 255 | 0.0 | 0.0 | 0.00 | 0.01 | 0.01 | 71 | 1009.6 |
| 20260905184532 | 67 | 191 | 0.0 | 1.0 | 0.00 | 0.01 | 0.01 | 77 | 1009.7 |
| 20260905183026 | 66 | 189 | 0.0 | 0.0 | 0.00 | 0.01 | 0.01 | 84 | 1009.9 |
| 20260905181517 | 63 | 190 | 0.0 | 0.0 | 0.00 | 0.01 | 0.01 | 88 | 1009.9 |
| 20260905180015 | 62 | 180 | 0.0 | 1.0 | 0.00 | 0.01 | 0.01 | 93 | 1009.9 |
| 20260905174525 | 59 | 271 | 0.0 | 0.0 | 0.00 | 0.01 | 0.01 | 96 | 1009.9 |
| 20260905173006 | 58 | 225 | 0.0 | 0.0 | 0.00 | 0.01 | 0.01 | 97 | 1009.9 |
| 20260905171506 | 57 | 206 | 0.0 | 0.0 | 0.00 | 0.01 | 0.01 | 97 | 1009.9 |
| 20260905170004 | 56 | 206 | 0.0 | 0.0 | 0.00 | 0.01 | 0.01 | 97 | 1009.9 |
| 20260905164503 | 55 | 233 | 0.0 | 0.0 | 0.00 | 0.01 | 0.01 | 96 | 1009.9 |
| 20260905163004 | 55 | 190 | 0.0 | 0.0 | 0.00 | 0.01 | 0.01 | 96 | 1009.8 |
| 20260905161502 | 54 | 28 | 0.0 | 0.0 | 0.00 | 0.01 | 0.01 | 96 | 1009.8 |
| 20260905160002 | 54 | 28 | 0.0 | 0.0 | 0.00 | 0.01 | 0.01 | 96 | 1009.9 |
| 20260905154502 | 53 | 28 | 0.0 | 0.0 | 0.00 | 0.01 | 0.01 | 96 | 1009.9 |
| 20260905153000 | 53 | 28 | 0.0 | 0.0 | 0.00 | 0.01 | 0.01 | 96 | 1009.8 |
| 20260905151600 | 52 | 28 | 0.0 | 0.0 | 0.00 | 0.01 | 0.01 | 96 | 1009.7 |
| 20260905150101 | 52 | 54 | 0.0 | 0.0 | 0.00 | 0.01 | 0.01 | 96 | 1009.6 |
| 20260905144558 | 52 | 52 | 0.0 | 0.0 | 0.00 | 0.01 | 0.01 | 96 | 1009.5 |
| 20260905143058 | 52 | 47 | 0.0 | 0.0 | 0.00 | 0.01 | 0.01 | 96 | 1009.6 |
| 20260905141612 | 52 | 32 | 0.0 | 0.0 | 0.00 | 0.01 | 0.01 | 96 | 1009.4 |